Location: Ch�tillon
(48.8024°N, 2.2935°E)
Time: 07:41:19
(UTC+00:00)

HJ-1C - Pass Details

Date: 16 October 2021
Orbit: 423 x 433 km, 97.1° (Epoch: 02 December)

Event Time Altitude Azimuth Distance (km) Brightness Sun altitude
Exits shadow 18:49:27 16° 178° (S) 1,202 5.4 -18.9°
Maximum altitude 18:51:55 65° 258° (WSW) 474 3.6 -19.3°
Drops below altitude 10° 18:55:10 10° 342° (NNW) 1,528 6.4 -19.8°
Sets 18:57:12 0° 345° (NNW) 2,401 7.4 -20.2°
